Weather History for Van Nuys, CA

Change the Weather History Date:

Wednesday, August 6, 2014

  Actual Average Record
Temperature  
Mean Temperature 71 °F -  
Max Temperature 84 °F 90 °F 106 °F (2012)
Min Temperature 60 °F 62 °F 57 °F (2010)
Cooling Degree Days 6    
Growing Degree Days 21 (Base 50)    
Moisture  
Dew Point 55 °F    
Average Humidity 62    
Maximum Humidity 84    
Minimum Humidity 31    
Precipitation  
Precipitation 0.00 in - - ()
Sea Level Pressure  
Sea Level Pressure 29.99 in    
Wind  
Wind Speed 5 mph (SE)    
Max Wind Speed 9 mph    
Max Gust Speed -    
Visibility 10 miles    
Events      
Averages and records for this station are not official NWS values.
T = Trace of Precipitation, MM = Missing Value Source: NWS Daily Summary

Daily Weather History Graph

Daily Weather History Graph

Search for Another Location

Airport:

Trip Planner

Search our weather history database for the weather conditions in past years. The results will help you decide how hot, cold, wet, or windy it might be!

Date:

Astronomy

Aug. 06, 2014 Rise Set
Actual Time 6:08 AM PDT 7:50 PM PDT
Civil Twilight 5:41 AM PDT 8:17 PM PDT
Nautical Twilight 5:08 AM PDT 8:50 PM PDT
Astronomical Twilight 4:34 AM PDT 9:24 PM PDT
Moon 4:10 PM PDT (8/6) 1:49 AM PDT (8/6)
Length of Visible Light 14h 35m
Length of Day
13h 41m
Waxing Gibbous, 78% of the Moon is Illuminated
Aug 6
Waxing Gibbous
Aug 10
Full
Aug 17
Last Quarter
Aug 25
New
Sep 2
First Quarter

Hourly Weather History & Observations

Time (PDT) Temp. Heat Index Dew Point Humidity Pressure Visibility Wind Dir Wind Speed Gust Speed Precip Events Conditions
12:51 AM 64.0 °F - 57.0 °F 78% 30.00 in 10.0 mi SE 5.8 mph - N/A   Clear
2:14 AM 62.6 °F - 57.2 °F 82% 30.04 in 10.0 mi SE 4.6 mph - N/A   Partly Cloudy
2:51 AM 62.1 °F - 57.0 °F 84% 30.01 in 10.0 mi ESE 4.6 mph - N/A   Partly Cloudy
3:51 AM 62.1 °F - 57.0 °F 84% 30.01 in 10.0 mi East 3.5 mph - N/A   Scattered Clouds
3:59 AM 62.6 °F - 57.2 °F 82% 30.03 in 10.0 mi SE 4.6 mph - N/A   Mostly Cloudy
5:51 AM 61.0 °F - 55.9 °F 83% 30.02 in 10.0 mi Calm Calm - N/A   Overcast
6:42 AM 60.8 °F - 55.4 °F 82% 30.05 in 8.0 mi Calm Calm - N/A   Overcast
6:51 AM 62.1 °F - 55.9 °F 80% 30.03 in 9.0 mi Calm Calm - N/A   Overcast
8:51 AM 64.9 °F - 55.9 °F 73% 30.04 in 10.0 mi SSE 4.6 mph - N/A   Scattered Clouds
9:51 AM 69.1 °F - 54.0 °F 58% 30.04 in 10.0 mi SE 5.8 mph - N/A   Clear
10:51 AM 73.0 °F - 54.0 °F 51% 30.03 in 10.0 mi Variable 3.5 mph - N/A   Clear
11:51 AM 78.1 °F - 54.0 °F 43% 30.01 in 10.0 mi Variable 3.5 mph - N/A   Clear
1:51 PM 81.0 °F - 52.0 °F 36% 29.98 in 10.0 mi SSE 8.1 mph - N/A   Clear
2:51 PM 82.0 °F 81.2 °F 53.1 °F 37% 29.96 in 10.0 mi SSE 8.1 mph - N/A   Clear
4:51 PM 82.9 °F - 48.9 °F 31% 29.93 in 10.0 mi ESE 9.2 mph - N/A   Clear
5:51 PM 82.0 °F - 52.0 °F 35% 29.91 in 10.0 mi SE 6.9 mph - N/A   Clear
6:51 PM 78.1 °F - 51.1 °F 39% 29.92 in 10.0 mi SSE 6.9 mph - N/A   Clear
7:51 PM 73.9 °F - 52.0 °F 46% 29.93 in 10.0 mi East 5.8 mph - N/A   Clear
8:51 PM 71.1 °F - 54.0 °F 55% 29.94 in 10.0 mi ESE 3.5 mph - N/A   Clear
9:51 PM 69.1 °F - 55.0 °F 61% 29.97 in 10.0 mi East 5.8 mph - N/A   Clear
11:51 PM 66.0 °F - 57.0 °F 73% 29.97 in 10.0 mi East 3.5 mph - N/A   Clear